Lager - Bauteileindex "SF", Stand: 03.05.2026

Bauteilenummer Hersteller Lagerbestand Stand  
SF0402F0752BOURNS10000 12.03.2026 Anfrage
SF0402F1252BOURNS802 12.03.2026 Anfrage
SF0402FP1502BOURNS9996 12.03.2026 Anfrage
SF0402S075M2BOURNS9948 12.03.2026 Anfrage
SF0603F2002BOURNS10000 12.03.2026 Anfrage
SF0603F5002BOURNS20000 12.03.2026 Anfrage
SF0603FP050M2BOURNS24000 12.03.2026 Anfrage
SF0603FP1502BOURNS10000 12.03.2026 Anfrage
SF0603FP200M2BOURNS18000 12.03.2026 Anfrage
SF0603FP500F2BOURNS8000 12.03.2026 Anfrage
SF0603HI150M2BOURNS3650 12.03.2026 Anfrage
SF0603HI200F2BOURNS6575 12.03.2026 Anfrage
SF0603HI300M2BOURNS4000 12.03.2026 Anfrage
SF0603S050M2BOURNS4000 12.03.2026 Anfrage
SF0603S150M2BOURNS4000 12.03.2026 Anfrage
SF0603S1602BOURNS88000 12.03.2026 Anfrage
SF0603S5002BOURNS10000 12.03.2026 Anfrage
SF0603SP2002BOURNS5000 12.03.2026 Anfrage
SF0603SP200M2BOURNS2230 12.03.2026 Anfrage
SF0603SP500M2BOURNS24000 12.03.2026 Anfrage
SF0603SPA200R2BOURNS2632 12.03.2026 Anfrage
SF0603SPA700R2BOURNS12683 12.03.2026 Anfrage
SF0915620001SV MICROWAVE12.03.2026 Anfrage
SF0930620012AMPHENOL12.03.2026 Anfrage
SF100101005SAME SKY19 12.03.2026 Anfrage
SF100151505SAME SKY14 12.03.2026 Anfrage
SF100153005SAME SKY17 12.03.2026 Anfrage
SF100202005SAME SKY342 12.03.2026 Anfrage
SF100303005SAME SKY12.03.2026 Anfrage
SF100313005SAME SKY16 12.03.2026 Anfrage
SF100414505SAME SKY31 12.03.2026 Anfrage
SF1058TRFM245 03.05.2026 Anfrage
SF11TE CONNECTIVITY POLAMCO11 12.03.2026 Anfrage
SF11036001SV MICROWAVE90 12.03.2026 Anfrage
SF1206F0502BOURNS644 12.03.2026 Anfrage
SF1206F1002BOURNS40000 12.03.2026 Anfrage
SF1206F2502BOURNS10000 12.03.2026 Anfrage
SF1206F450M2BOURNS3000 12.03.2026 Anfrage
SF1206F5002BOURNS15000 12.03.2026 Anfrage
SF1206F7002BOURNS5290 12.03.2026 Anfrage
SF1206HH20M2BOURNS2776 12.03.2026 Anfrage
SF1206HH30M2BOURNS93000 12.03.2026 Anfrage
SF1206HI500M2BOURNS9000 12.03.2026 Anfrage
SF1206HIA200M2BOURNS12000 12.03.2026 Anfrage
SF1206HV10M2BOURNS15000 12.03.2026 Anfrage
SF1206S0502BOURNS219000 12.03.2026 Anfrage
SF1206S1252BOURNS2613 12.03.2026 Anfrage
SF1206S1502BOURNS15000 12.03.2026 Anfrage
SF1206S160W2BOURNS3500 12.03.2026 Anfrage
SF1206S200W2BOURNS7000 12.03.2026 Anfrage
SF1206S4002BOURNS23458 12.03.2026 Anfrage
SF1206S400W2BOURNS17500 12.03.2026 Anfrage
SF1206S7002BOURNS4460 12.03.2026 Anfrage
SF1206SA1500R2BOURNS4240 12.03.2026 Anfrage
SF1206SP0502BOURNS10000 12.03.2026 Anfrage
SF1206SP600M2BOURNS3000 12.03.2026 Anfrage
SF13TE CONNECTIVITY POLAMCO19 12.03.2026 Anfrage
SF1301H01TE CONNECTIVITY CII BRAND12.03.2026 Anfrage
SF131210DA3AMPHENOL100 12.03.2026 Anfrage
SF152160013AMPHENOL35 12.03.2026 Anfrage
SF152ESEFUSE20200 03.05.2026 Anfrage
SF16TE CONNECTIVITY POLAMCO25 12.03.2026 Anfrage
SF160868M4UU01KYOCERA1344 18.11.2025 Anfrage
SF188ENEC4800 03.05.2026 Anfrage
SF1T830S02PFTDK200 12.03.2026 Anfrage
SF20TE CONNECTIVITY POLAMCO12.03.2026 Anfrage
SF2159EMURATA1500 12.03.2026 Anfrage
SF2170DMURATA2000 12.03.2026 Anfrage
SF2410FP075T2BOURNS1000 12.03.2026 Anfrage
SF2410FP100T2BOURNS1000 12.03.2026 Anfrage
SF2410FP250W2BOURNS1964 12.03.2026 Anfrage
SF2410HI0375T2BOURNS1000 12.03.2026 Anfrage
SF2410HI300T2BOURNS947 12.03.2026 Anfrage
SF2410SP200W2BOURNS1965 12.03.2026 Anfrage
SF29006001SV MICROWAVE54 12.03.2026 Anfrage
SF2923HC30C2BOURNS760 12.03.2026 Anfrage
SF29756321SV MICROWAVE12.03.2026 Anfrage
SF2DC12VMATSHUSHITA10 03.05.2026 Anfrage
SF2UEELITTELFUSE3669 12.03.2026 Anfrage
SF3TE CONNECTIVITY AMP BRAND12.03.2026 Anfrage
SF30AKNOWLES VOLTRONICS10 12.03.2026 Anfrage
SF32S00000016APEM INC50 12.03.2026 Anfrage
SF36P000000APEM INC12 12.03.2026 Anfrage
SF36S00000016APEM INC50 12.03.2026 Anfrage
SF36S011100APEM INC36 12.03.2026 Anfrage
SF37S010000APEM INC46 12.03.2026 Anfrage
SF3812F2000T2BOURNS631 12.03.2026 Anfrage
SF3812FG2000T2BOURNS6806 12.03.2026 Anfrage
SF3812TL075T2BOURNS2500 12.03.2026 Anfrage
SF39S010000APEM INC146 12.03.2026 Anfrage
SF4001TELEFUNKEN600 03.05.2026 Anfrage
SF400151505SAME SKY12.03.2026 Anfrage
SF400153005SAME SKY12.03.2026 Anfrage
SF400202005SAME SKY13 12.03.2026 Anfrage
SF400204005SAME SKY30 12.03.2026 Anfrage
SF400265005SAME SKY12.03.2026 Anfrage
SF400313005SAME SKY12.03.2026 Anfrage
SF400404005SAME SKY15 12.03.2026 Anfrage
SF400414505SAME SKY12.03.2026 Anfrage
SF424VMATSHUSHITA20 03.05.2026 Anfrage
SF4D5DPANASONIC40 12.03.2026 Anfrage
SF4DC-RelayNAIS39 03.05.2026 Anfrage
SF4DC24VNAIS03.05.2026 Anfrage
SF4DDC12VPANASONIC12.03.2026 Anfrage
SF4DDC60VPANASONIC163 12.03.2026 Anfrage
SF4UEELITTELFUSE99 12.03.2026 Anfrage
SF50TE CONNECTIVITY RAYCHEM18 12.03.2026 Anfrage
SF5002L01TE CONNECTIVITY CII BRAND12.03.2026 Anfrage
SF5037S02TE CONNECTIVITY CII BRAND12.03.2026 Anfrage
SF51112J01TE CONNECTIVITY CII BRAND25 12.03.2026 Anfrage
SF51113Y01TE CONNECTIVITY CII BRAND12.03.2026 Anfrage
SF51117W01TE CONNECTIVITY CII BRAND12.03.2026 Anfrage
SF5162L01TE CONNECTIVITY CII BRAND10 12.03.2026 Anfrage
SF5177S01TE CONNECTIVITY CII BRAND17 12.03.2026 Anfrage
SF5201Y01TE CONNECTIVITY CII BRAND12.03.2026 Anfrage
SF52107J01TE CONNECTIVITY CII BRAND12.03.2026 Anfrage
SF5229D01TE CONNECTIVITY CII BRAND12.03.2026 Anfrage
SF523050EATON ELECTRONICS15000 12.03.2026 Anfrage
SF56TE CONNECTIVITY RAYCHEM12.03.2026 Anfrage
SF5601H01TE CONNECTIVITY CII BRAND12.03.2026 Anfrage
SF5601Y01TE CONNECTIVITY CII BRAND12.03.2026 Anfrage
SF57106J01TE CONNECTIVITY CII BRAND12.03.2026 Anfrage
SF58TE CONNECTIVITY RAYCHEM20 12.03.2026 Anfrage
SF5A51145S01TE CONNECTIVITY CII BRAND12.03.2026 Anfrage
SF5A5137S02TE CONNECTIVITY CII BRAND12.03.2026 Anfrage
SF5A5175J01TE CONNECTIVITY CII BRAND13 12.03.2026 Anfrage
SF5A5201W02TE CONNECTIVITY CII BRAND12.03.2026 Anfrage
SF5A5201W03TE CONNECTIVITY CII BRAND12.03.2026 Anfrage
SF5A5220J01TE CONNECTIVITY CII BRAND12.03.2026 Anfrage
SF5A53145S01TE CONNECTIVITY CII BRAND12.03.2026 Anfrage
SF5A53145S02TE CONNECTIVITY CII BRAND12.03.2026 Anfrage
SF61TE CONNECTIVITY RAYCHEM12.03.2026 Anfrage
SF62TE CONNECTIVITY POLAMCO21 12.03.2026 Anfrage
SF6201N02TE CONNECTIVITY CII BRAND11 12.03.2026 Anfrage
SF6201S09TE CONNECTIVITY CII BRAND12.03.2026 Anfrage
SF6201S10TE CONNECTIVITY CII BRAND12.03.2026 Anfrage
SF6201S11TE CONNECTIVITY CII BRAND12.03.2026 Anfrage
SF6UEELITTELFUSE12.03.2026 Anfrage
SF7TE CONNECTIVITY AMP BRAND23 12.03.2026 Anfrage
SF8TE CONNECTIVITY AMP BRAND12.03.2026 Anfrage
SF851202DAMPHENOL50 12.03.2026 Anfrage
SF851202D3AMPHENOL100 12.03.2026 Anfrage
SF851202DAAMPHENOL50 12.03.2026 Anfrage
SF851202DA3AMPHENOL100 12.03.2026 Anfrage
SF892160034SV MICROWAVE12.03.2026 Anfrage
SF932160013SV MICROWAVE12.03.2026 Anfrage
SF932160019AMPHENOL16 12.03.2026 Anfrage
SFA37S2K219BFKNOWLES CORNELL DUBILIER95 12.03.2026 Anfrage
SFA37T3K219BFKNOWLES CORNELL DUBILIER237 12.03.2026 Anfrage
SFA44T4K219BFKNOWLES CORNELL DUBILIER100 12.03.2026 Anfrage
SFA66T10K475BFKNOWLES CORNELL DUBILIER17 12.03.2026 Anfrage
SFA66T6L388BFKNOWLES CORNELL DUBILIER37 12.03.2026 Anfrage
SFA66X5H388B0000KNOWLES CORNELL DUBILIER252 12.03.2026 Anfrage
SFAPI101KULTRBEL SIGNAL TRANSFORMER1000 12.03.2026 Anfrage
SFB103003SIKEATON ELECTRONICS60 12.03.2026 Anfrage
SFBMP5000441MC0KNOWLES SYFER50 12.03.2026 Anfrage
SFC2311DCST MICROELECTRONICS250 06.01.2026 Anfrage
SFC4712F0DAMPHENOL12.03.2026 Anfrage
SFC4912F0DAMPHENOL12.03.2026 Anfrage
SFC5312F0DAMPHENOL12.03.2026 Anfrage
SFC5512F0DAMPHENOL12 12.03.2026 Anfrage
SFC5712F0DAUTOMATIC CONN12.03.2026 Anfrage
SFC5912F0DAMPHENOL12.03.2026 Anfrage
SFC6112F0DAMPHENOL12.03.2026 Anfrage
SFC66T15K391BFKNOWLES CORNELL DUBILIER27 12.03.2026 Anfrage
SFC66T18K391BFKNOWLES CORNELL DUBILIER62 12.03.2026 Anfrage
SFD111109TR33MNYAGEO CORPORATION31800 12.03.2026 Anfrage
SFD120012BGBEL BEL POWER SOLUTIONS12.03.2026 Anfrage
SFD44T45K391BFKNOWLES CORNELL DUBILIER12 12.03.2026 Anfrage
SFD55012BGBEL BEL POWER SOLUTIONS12.03.2026 Anfrage
SFD550S101GBEL BEL POWER SOLUTIONS44 12.03.2026 Anfrage
SFD66T25K391BFKNOWLES CORNELL DUBILIER22 12.03.2026 Anfrage
SFD66T40K475BFKNOWLES CORNELL DUBILIER12.03.2026 Anfrage
SFE1052MJA10MURATA1110 03.05.2026 Anfrage
SFE1052MJA10TF21MURATA1110 03.05.2026 Anfrage
SFE14EATON ELECTRONICS1840 12.03.2026 Anfrage
SFE20EATON ELECTRONICS1945 12.03.2026 Anfrage
SFE4EATON ELECTRONICS145 12.03.2026 Anfrage
SFE410C2A1TE CONNECTIVITY DEUTSCH12.03.2026 Anfrage
SFE610D2B2TE CONNECTIVITY DEUTSCH10 12.03.2026 Anfrage
SFE9EATON ELECTRONICS875 12.03.2026 Anfrage
SFECV10M7JK00R0MURATA2000 12.03.2026 Anfrage
SFFCSFPX2000002AMPHENOL22 12.03.2026 Anfrage
SFFCSFPX2000006AMPHENOL25 12.03.2026 Anfrage
SFFCSFPX2000010AMPHENOL25 12.03.2026 Anfrage
SFGWSDKV2EOMRON12.03.2026 Anfrage
SFH203FAOSRAM06.01.2026 Anfrage
SFH203PFAOSRAM OPTO9848 12.03.2026 Anfrage
SFH205FOSRAM OPTO2866 12.03.2026 Anfrage
SFH235FAOSRAM775 06.01.2026 Anfrage
SFH300OSRAM OPTO9305 12.03.2026 Anfrage
SFH30034OSRAM OPTO5855 12.03.2026 Anfrage
SFH3033OSRAM OPTO417 03.05.2026 Anfrage
SFH30945OSRAM OPTO7688 12.03.2026 Anfrage
SFH309FA5OSRAM OPTO712 12.03.2026 Anfrage
SFH309FA56OSRAMOPTO760 12.03.2026 Anfrage
SFH310OSRAM OPTO9492 12.03.2026 Anfrage
SFH310-2INFINEON332 03.05.2026 Anfrage
SFH310FAOSRAM OPTO8712 12.03.2026 Anfrage
SFH314OSRAM OPTO740 03.05.2026 Anfrage
SFH314FA2OSRAM GMBH1000 03.05.2026 Anfrage
SFH320ZOSRAM OPTO3840 12.03.2026 Anfrage
SFH3211OSRAM GMBH4000 03.05.2026 Anfrage
SFH3211OSRAM GMBH40000 03.05.2026 Anfrage
SFH3211OSRAM GMBH28000 03.05.2026 Anfrage
SFH3211OSRAM GMBH34000 03.05.2026 Anfrage
SFH325FAOSRAM OPTO2000 03.05.2026 Anfrage
SFH325ZOSRAMOPTO6000 12.03.2026 Anfrage
SFH4059SRRSOSRAM OPTO879 12.03.2026 Anfrage
SFH420OSRAM400 06.01.2026 Anfrage
SFH4200INFINEON50 03.05.2026 Anfrage
SFH4250SOSRAM OPTO2000 03.05.2026 Anfrage
SFH4250SOSRAM OPTO2789 03.05.2026 Anfrage
SFH4256OSRAMOPTO912 12.03.2026 Anfrage
SFH4257RQ1Q2ZOSRAM OPTO1009 12.03.2026 Anfrage
SFH4281OSRAM OPTO43252 03.05.2026 Anfrage
SFH4281OSRAM OPTO38000 03.05.2026 Anfrage
SFH4500OSRAM OPTO432 03.05.2026 Anfrage
SFH4544OSRAM OPTO1299 12.03.2026 Anfrage
SFH4556OSRAM OPTO5385 12.03.2026 Anfrage
SFH4715SCBDAOSRAM OPTO299 03.05.2026 Anfrage
SFH6000GISOCOM1429 12.03.2026 Anfrage
SFH6001SIEMENS108 03.05.2026 Anfrage
SFH6003SIEMENS1000 03.05.2026 Anfrage
SFH6003SIEMENS50 03.05.2026 Anfrage
SFH6013SIEMENS812 03.05.2026 Anfrage
SFH6014OPT1VISHAY1659 12.03.2026 Anfrage
SFH61061VISHAY89 03.05.2026 Anfrage
SFH61061VISHAY319 12.03.2026 Anfrage
SFH610A4VISHAY2828 03.05.2026 Anfrage
SFH61562TVISHAY850 12.03.2026 Anfrage
SFH61563X001TVISHAY1693 12.03.2026 Anfrage
SFH615A4X016VISHAY1300 03.05.2026 Anfrage
SFH617A2VISHAY304 03.05.2026 Anfrage
SFH617A2VISHAY573 03.05.2026 Anfrage
SFH617A3SMISOCOM1998 12.03.2026 Anfrage
SFH617A3X007TVISHAY3617 12.03.2026 Anfrage
SFH62062VISHAY1658 12.03.2026 Anfrage
SFH62063TVISHAY660 06.01.2026 Anfrage
SFH62863X001TVISHAY371 12.03.2026 Anfrage
SFH62864TVISHAY3939 12.03.2026 Anfrage
SFH6403X007TVISHAY693 03.05.2026 Anfrage
SFH690ATINFINEON1152 03.05.2026 Anfrage
SFH690ATVISHAY1746 03.05.2026 Anfrage
SFH690BTVISHAY280 03.05.2026 Anfrage
SFL450J3MURATA263 03.05.2026 Anfrage
SFM10502LDKSAMTEC724 12.03.2026 Anfrage
SFM10702LDASAMTEC228 03.05.2026 Anfrage
SFM11002HDAPTSAMTEC350 12.03.2026 Anfrage
SFM13502SDAKTRSAMTEC4520 12.03.2026 Anfrage
SFMC10503SDTRSAMTEC1325 12.03.2026 Anfrage
SFML105T1HDLCSAMTEC138 12.03.2026 Anfrage
sfmx125t2sdSAMTEC121 06.01.2026 Anfrage
SFN4DDC24VPANASONIC64 12.03.2026 Anfrage
SFNDAQGJ100G002MAMPHENOL12.03.2026 Anfrage
SFNDCCGJ28GB005MAMPHENOL12.03.2026 Anfrage
SFP1GBT05BEL BEL FUSE308 12.03.2026 Anfrage
SFP37T125K238BFKNOWLES CORNELL DUBILIER13 12.03.2026 Anfrage
SFP37T15K238BFKNOWLES CORNELL DUBILIER45 12.03.2026 Anfrage
SFP37T20K238BFKNOWLES CORNELL DUBILIER32 12.03.2026 Anfrage
SFP37T30K284BFKNOWLES CORNELL DUBILIER34 12.03.2026 Anfrage
SFP44S3K238BFKNOWLES CORNELL DUBILIER65 12.03.2026 Anfrage
SFP44S75K238BFKNOWLES CORNELL DUBILIER86 12.03.2026 Anfrage
SFP44T10K238BFKNOWLES CORNELL DUBILIER52 12.03.2026 Anfrage
SFP44T20K284BFKNOWLES CORNELL DUBILIER152 12.03.2026 Anfrage
SFP45012BGBEL BEL POWER SOLUTIONS12.03.2026 Anfrage
SFP450S101GBEL BEL POWER SOLUTIONS135 12.03.2026 Anfrage
SFPCHL20METCAL24 12.03.2026 Anfrage
SFPCNL04METCAL22 12.03.2026 Anfrage
SFPP014LYAGEO CORPORATION38 12.03.2026 Anfrage
SFQSFP4SFPPS001AMPHENOL25 12.03.2026 Anfrage
SFQSFP4SFPPS002AMPHENOL12.03.2026 Anfrage
SFQSFP4SFPPS005AMPHENOL14 12.03.2026 Anfrage
SFQSFPINFQDR001AMPHENOL25 12.03.2026 Anfrage
SFQSFPINFQDR002AMPHENOL25 12.03.2026 Anfrage
SFQSFPINFQDR003AMPHENOL25 12.03.2026 Anfrage
SFQSFPINFQDR005AMPHENOL25 12.03.2026 Anfrage
SFQSFPPEXPAS007AMPHENOL24 12.03.2026 Anfrage
SFR2500002701JR500VISHAY10000 12.03.2026 Anfrage
SFR2500004759FR500VISHAY4950 06.01.2026 Anfrage
SFR2500005902FR500VISHAY20000 12.03.2026 Anfrage
SFR25H470R5[%]PHILIPS6000 06.01.2026 Anfrage
SFR25HJ150RVISHAY45 06.01.2026 Anfrage
SFR25HJ220KVISHAY280 06.01.2026 Anfrage
SFR25HJ470KVISHAY5000 06.01.2026 Anfrage
SFR25HJ47RVISHAY1430 06.01.2026 Anfrage
SFR25HJ68RPHILIPS200 06.01.2026 Anfrage
SFRSXX1XRWXRXXXCUTLER HAMMER EATON56 12.03.2026 Anfrage
SFS2LDC24VPANASONIC22 12.03.2026 Anfrage
SFS37S305K400EFKNOWLES CORNELL DUBILIER12.03.2026 Anfrage
SFS37S35K288BFKNOWLES CORNELL DUBILIER29 12.03.2026 Anfrage
SFS37T40K291BFKNOWLES CORNELL DUBILIER91 12.03.2026 Anfrage
SFS4DC24VPANASONIC12.03.2026 Anfrage
SFS4LDC24VDPANASONIC73 12.03.2026 Anfrage
SFS4SFDPANASONIC12.03.2026 Anfrage
SFS4SFDRPANASONIC210 12.03.2026 Anfrage
SFS6SFDPANASONIC12.03.2026 Anfrage
SFSFPOPTIKIT001AMPHENOL12.03.2026 Anfrage
SFSFPOPTIKIT010AMPHENOL10 12.03.2026 Anfrage
SFSFPP2EACTV001AMPHENOL25 12.03.2026 Anfrage
SFSFPP2EACTV003AMPHENOL14 12.03.2026 Anfrage
SFSFPP2EACTV005AMPHENOL14 12.03.2026 Anfrage
SFSFPP2EACTV007AMPHENOL17 12.03.2026 Anfrage
SFSFPP2EACTV010AMPHENOL12.03.2026 Anfrage
SFSFPP2EPASS0005AMPHENOL12.03.2026 Anfrage
SFSFPP2EPASS008AMPHENOL12.03.2026 Anfrage
SFSFPP2EPASS0085AMPHENOL19 12.03.2026 Anfrage
SFSFPP2EPASS010AMPHENOL12.03.2026 Anfrage
SFT375MAEATON ELECTRONICS485 12.03.2026 Anfrage
SFT37T100K391BFKNOWLES CORNELL DUBILIER462 12.03.2026 Anfrage
SFT7162D01TE CONNECTIVITY CII BRAND98 12.03.2026 Anfrage
SFT7162S01TE CONNECTIVITY CII BRAND12.03.2026 Anfrage
SFUMC5000223MX0KNOWLES SYFER100 12.03.2026 Anfrage
SFV10R1STE1HLFAMPHENOL12000 12.03.2026 Anfrage
SFV10R2STBE1HLFAMPHENOL12000 12.03.2026 Anfrage
SFV12R1STBE1HLFAMPHENOL3000 12.03.2026 Anfrage
SFV12R3STBE1HLFAMPHENOL21000 12.03.2026 Anfrage
SFV14R3STBE1HLFAMPHENOL15000 12.03.2026 Anfrage
SFV16R1STE1HLFAMPHENOL24000 12.03.2026 Anfrage
SFV16R4STE1HLFAMPHENOL3000 12.03.2026 Anfrage
SFV17R2STBE1HLFAMPHENOL11100 12.03.2026 Anfrage
SFV20R2STBE1HLFAMPHENOL8600 12.03.2026 Anfrage
SFV20R3STBE1HLFAMPHENOL11650 12.03.2026 Anfrage
SFV20R4STE1HLFAMPHENOL3000 12.03.2026 Anfrage
SFV21R1STE1HLFAMPHENOL9000 12.03.2026 Anfrage
SFV24R2STE1HLFAMPHENOL45000 12.03.2026 Anfrage
SFV24R3STBE1HLFAMPHENOL8828 12.03.2026 Anfrage
SFV24R3STE1HLFAMPHENOL6000 12.03.2026 Anfrage
SFV25R2STBE1HLFAMPHENOL3000 12.03.2026 Anfrage
SFV26R1STE1HLFAMPHENOL3000 12.03.2026 Anfrage
SFV26R2STBE1HLFAMPHENOL6000 12.03.2026 Anfrage
SFV28R1STE1HLFAMPHENOL5170 12.03.2026 Anfrage
SFV28R2STE1HLFAMPHENOL11900 12.03.2026 Anfrage
SFV30R1STE1HLFAMPHENOL14000 12.03.2026 Anfrage
SFV30R2STBE1HLFAMPHENOL12000 12.03.2026 Anfrage
SFV33R2STE9HLFFCI241 03.05.2026 Anfrage
SFV34R2STE1HLFAMPHENOL1800 12.03.2026 Anfrage
SFV34R4STBE1HLFAMPHENOL6000 12.03.2026 Anfrage
SFV35R1STE1HLFAMPHENOL3000 12.03.2026 Anfrage
SFV35R2STBE1HLFAMPHENOL3000 12.03.2026 Anfrage
SFV4R2STBE1HLFAMPHENOL9000 12.03.2026 Anfrage
SFV4R2STE1HLFAMPHENOL6000 12.03.2026 Anfrage
SFV5R1STBE1HLFAMPHENOL9000 12.03.2026 Anfrage
SFV5R2STE1HLFAMPHENOL9000 12.03.2026 Anfrage
SFV6R2STE1HLFAMPHENOL12025 12.03.2026 Anfrage
SFV6R3STE1HLFAMPHENOL6000 12.03.2026 Anfrage
SFV8R2STE1HLFAMPHENOL16800 12.03.2026 Anfrage
SFV8R3STBE1HLFAMPHENOL13670 12.03.2026 Anfrage
SFW10R1STE1LFAMPHENOL6000 12.03.2026 Anfrage
SFW10R4STAE1LFAMPHENOL4000 12.03.2026 Anfrage
SFW10R4STE1LFAMPHENOL8000 12.03.2026 Anfrage
SFW10S2STE1LFAMPHENOL28000 12.03.2026 Anfrage
SFW10S6STME1LFAMPHENOL1997 03.05.2026 Anfrage
SFW11R3STE1LFAMPHENOL3950 12.03.2026 Anfrage
SFW11R6STE1LFAMPHENOL3990 12.03.2026 Anfrage
SFW12R1STE1LFAMPHENOL41988 12.03.2026 Anfrage
SFW12R2STE1LFAMPHENOL64000 12.03.2026 Anfrage
SFW12R5STE1LFAMPHENOL3913 12.03.2026 Anfrage
SFW12S2STE1LFAMPHENOL51000 12.03.2026 Anfrage
SFW12S2STME1LFAMPHENOL11000 12.03.2026 Anfrage
SFW14R1STE1LFAMPHENOL118719 12.03.2026 Anfrage
SFW14R2STE1LFAMPHENOL21780 12.03.2026 Anfrage
SFW14S2STE1LFAMPHENOL52975 12.03.2026 Anfrage
SFW16R1STE1LFAMPHENOL3300 12.03.2026 Anfrage
SFW16R2STE1LFAMPHENOL2000 12.03.2026 Anfrage
SFW17R1STE1LFAMPHENOL4000 12.03.2026 Anfrage
SFW18R1STAE1LFAMPHENOL3660 12.03.2026 Anfrage
SFW18R1STE1HLFAMPHENOL8000 12.03.2026 Anfrage
SFW18R1STE1LFAMPHENOL32000 12.03.2026 Anfrage
SFW18R2STE1LFAMPHENOL3990 12.03.2026 Anfrage
SFW20R2STE1LFAMPHENOL8000 12.03.2026 Anfrage
SFW20R3STAE5LFAMPHENOL500 12.03.2026 Anfrage
SFW21R3STE1LFAMPHENOL3522 12.03.2026 Anfrage
SFW22R1STE1LFAMPHENOL13500 12.03.2026 Anfrage
SFW22R2STE1LFAMPHENOL6000 12.03.2026 Anfrage
SFW22S2STE1LFAMPHENOL23000 12.03.2026 Anfrage
SFW22S6STME1LFAMPHENOL4000 12.03.2026 Anfrage
SFW24R1STE1LFAMPHENOL8000 12.03.2026 Anfrage
SFW24R2STE1LFAMPHENOL4000 12.03.2026 Anfrage
SFW26R1STE1LFAMPHENOL737 12.03.2026 Anfrage
SFW26R3STE1LFAMPHENOL2000 12.03.2026 Anfrage
SFW28R2STE1LFAMPHENOL1200 12.03.2026 Anfrage
SFW30R1STE1LFAMPHENOL20000 12.03.2026 Anfrage
SFW30R2STE1LFAMPHENOL12000 12.03.2026 Anfrage
SFW3199L01TE CONNECTIVITY CII BRAND12.03.2026 Anfrage
SFW4R1STAE1LFAMPHENOL8000 12.03.2026 Anfrage
SFW4R1STE1LFAMPHENOL40648 12.03.2026 Anfrage
SFW4R2STAE1LFAMPHENOL6000 12.03.2026 Anfrage
SFW4R2STE1LFAMPHENOL4000 12.03.2026 Anfrage
SFW4R4STE5LFAMPHENOL9000 12.03.2026 Anfrage
SFW5R1STAE1LFAMPHENOL1990 12.03.2026 Anfrage
SFW5R1STE1LFAMPHENOL8748 12.03.2026 Anfrage
SFW5R2STE1LFAMPHENOL6000 12.03.2026 Anfrage
SFW6R1STE1LFAMPHENOL6180 12.03.2026 Anfrage
SFW6R3STE1LFAMPHENOL8000 12.03.2026 Anfrage
SFW6R5STE1LFAMPHENOL4000 12.03.2026 Anfrage
SFW6S2STAE1LFAMPHENOL51000 12.03.2026 Anfrage
SFW7R2STE1LFAMPHENOL4000 12.03.2026 Anfrage
SFW7S2STAE1LFAMPHENOL15593 12.03.2026 Anfrage
SFW8R1STE1HLFAMPHENOL4000 12.03.2026 Anfrage
SFW8R1STE1LFAMPHENOL38000 12.03.2026 Anfrage
SFW8R2STE1LFAMPHENOL32000 12.03.2026 Anfrage
SFW8R4STE1LFAMPHENOL6270 12.03.2026 Anfrage
SFW8S2STME1LFAMPHENOL1650 12.03.2026 Anfrage
SFW9R3STAE1LFFCI FIRST COMPONENTS INTERNATIONAL4000 03.05.2026 Anfrage
SFY2DC24VPANASONIC1000 12.09.2023 Anfrage
SFY4DC18VPANASONIC16 12.03.2026 Anfrage
SFY5DC12VPANASONIC20 12.03.2026 Anfrage
SFY5DC5VPANASONIC19 12.03.2026 Anfrage


Zurück zur StartseiteKlicken Sie hier um unser tagesaktuelles Angebot von über 35.000 Lagerpositionen zu durchsuchen
oder senden Sie uns eine kostenlose und unverbindliche Anfrage über das gewünschte Bauteil


Diese Website verwendet Cookies. Klicken Sie hier für Nutzungsbedingungen und Hinweise zum Datenschutz